Miscellaneous Local Product
Issued by NWS Hastings, NE

Home | Current Version | Previous Version | Graphics & Text | Print | Product List | Glossary On
Versions: 1 2 3 4 5 6 7 8 9 10 11 12 13 14 15 16 17 18 19 20 21 22 23 24 25 26 27 28 29 30 31 32 33 34 35 36 37 38 39 40 41 42 43 44 45 46 47 48 49 50
990
AXUS43 KGID 281302
MISGRI

GID CWA HOURLY WEATHER ROUNDUP
NATIONAL WEATHER SERVICE HASTINGS NE
800 AM CDT THU APR 28 2016

NOTE: "FAIR" INDICATES FEW OR NO CLOUDS BELOW 12,000 FEET WITH NO
SIGNIFICANT WEATHER AND/OR OBSTRUCTIONS TO VISIBILITY.

...SOUTH CENTRAL NEBRASKA...

CITY           SKY/WX    TMP DP  RH WIND       PRES   REMARKS
GRAND ISLAND   CLOUDY    40  38  93 NW17      29.91R WCI  31
HASTINGS       MOSUNNY   40  36  86 NW25      29.89R WCI  29
KEARNEY        MOSUNNY   39  34  81 N18G25    29.91R WCI  30
ORD            CLOUDY    39  38  96 NW13      29.91R FOG     WCI  31
YORK           CLOUDY    45  41  87 N14G21    29.87R
AURORA         CLOUDY    42  41  97 NW14      29.89R
LEXINGTON      SUNNY     37  32  84 NW15G21   29.94R WCI  27
HOLDREGE       SUNNY     37  33  84 NW13G21   29.92R WCI  29
HEBRON         CLOUDY    43  39  88 NW13G20   29.89R

...NEBRASKA PANHANDLE...

CITY           SKY/WX    TMP DP  RH WIND       PRES   REMARKS
CHADRON        CLOUDY    34  31  88 N6        30.01R WCI  29
ALLIANCE       CLOUDY    31  28  89 N9        29.98R WCI  23
SCOTTSBLUFF    CLOUDY    33  29  85 NE3       29.99R
SIDNEY         PTSUNNY   31  27  85 N14       29.96S WCI  21

...WESTERN AND NORTH CENTRAL NEBRASKA...

CITY           SKY/WX    TMP DP  RH WIND       PRES   REMARKS
VALENTINE      CLOUDY    34  32  92 NW10      29.98R FOG     WCI  26
AINSWORTH      CLOUDY    34  34  99 NW16      29.95R FOG     WCI  24
ONEILL         CLOUDY    41  40  95 N10       29.90R FOG
BROKEN BOW     LGT RAIN  35  33  92 NW12      29.94R WCI  27
IMPERIAL       SUNNY     33  29  85 NW13      29.98R WCI  24
NORTH PLATTE   SUNNY     32  30  92 NW8       29.97R WCI  25
MCCOOK         SUNNY     34  30  85 NW13      29.97R WCI  25

...EASTERN NEBRASKA...

CITY           SKY/WX    TMP DP  RH WIND       PRES   REMARKS
NORFOLK        CLOUDY    42  40  92 N14       29.85R
SO SIOUX CITY  CLOUDY    44  41  89 N14       29.84R FOG
TEKAMAH        CLOUDY    45  43  93 NW15      29.82R
COLUMBUS       CLOUDY    45  36  70 NW14      29.87R
ALBION         CLOUDY    42  40  93 N12       29.88R
OMAHA EPPLEY   CLOUDY    47  44  90 NW16      29.81R
OFFUTT AFB     CLOUDY    46  46  97 NW14      29.80R
MILLARD        CLOUDY    46  44  92 NW12      29.81R FOG
LINCOLN        CLOUDY    47  41  80 NW12      29.86R
NEBRASKA CITY  CLOUDY    47  45  95 NW18      29.83R
BEATRICE       CLOUDY    46  44  93 NW13      29.85R
FALLS CITY     CLOUDY    49  46  90 W9        29.82R FOG

...NORTHERN KANSAS...

CITY           SKY/WX    TMP DP  RH WIND       PRES   REMARKS
GOODLAND       CLOUDY    37  30  75 N12       29.97R WCI  29
HILL CITY      MOSUNNY   39  32  76 NW13      29.99R WCI  31
NORTON         SUNNY     36  28  75 W10       29.97  WCI  28
PHILLIPSBURG   MOSUNNY   39  34  81 W8        29.98R WCI  34
SMITH CENTER   SUNNY     37  34  87 W12       29.97R WCI  30
BELOIT         MOSUNNY   37  34  87 W13       29.95R WCI  29
HAYS           CLOUDY    39  27  60 NW16      29.98R WCI  30
RUSSELL        CLOUDY    41  33  73 NW16      29.96R
CONCORDIA      MOSUNNY   40  35  83 W14       29.93R WCI  32
SALINA         CLOUDY    44  35  70 NW17      29.95R
TOPEKA         CLOUDY    46  38  73 W8        29.91R



USA.gov is the U.S. government's official web portal to all federal, state and local government web resources and services.